Погода в Карасуке

Погода в Карасуке : погода сейчас, прогноз погоды и архив. Всё, что Вы хотите узнать о погоде в Карасуке!

Хотите узнать прогноз погоды в Карасуке? Тогда Вам сюда: Погода в Карасуке

Поиск расширенной информации на нашем сайте:

Другие новости

Новости СМИ2

Главная страница сайта

Новости сайта

03.07.2017

Напоминаем, что на нашем специализированном сайте Метеоцентр.Азия вы можете получить высокодетализированные автоматические прогнозы погоды по пунктам России, СНГ и мира в авиационном формате (включающие направление и скорость ветра, видимость, явления погоды, количество и форму облачности, нижнюю и верхнюю границу облачности).

Рекомендуем: контейнер прямоугольный с крышкой по низкой цене

Погода в Карасуке - сегодня

Время (UTC), дата Ветер
(°,м/с) 
Видим.   Явления Облачность Т
(°С)
Тd
(°С)
f(%) Тe
(°С)
Pmin
(гПа)
dP
(гПа)
Po
(мм)
O2
(г/м3)
Тmin Tmax R s Состояние
почвы
06 18.04.18 240 (ЮЗ) 20000 м    10/10 540 м кучево-дожд. 
[Cb calv]
+2.7 -11.1 35 +2  1022.9  0.3  756  303           
09 18.04.18 220 (ЮЗ) 20000 м    10/8 500 м кучево-дожд., средняя 
[Cb calv|Ac As]
+3.9 -10.9 33 +3  1021.9  -1  756  301           
12 18.04.18 310 (СЗ) 20000 м    8/8 540 м кучево-дожд. 
[Cb calv]
+4.3 -10.9 32 +4  1021  -0.9  755  300    +5.1       
15 18.04.18 тихо ()   20000 м    3/3 300 м кучево-дожд. 
[Cb cap]
+1.7 -8.1 48 +2  1021.4  0.3  755  303           
18 18.04.18 190 (Ю) 20000 м    10/10 500 м кучево-дожд. 
[Cb cap]
+0.6 -8.7 50 1020.7  -0.8  755  304           
21 18.04.18 170 (Ю) 20000 м    10/10 450 м кучево-дожд. 
[Cb calv]
-0.1 -8.1 55 -1  1019.7  -0.9  754  305           
00 19.04.18 120 (ЮВ) 20000 м    10/10 870 м 
[Sc]
-1.4 -7.7 62 -2  1018.4  -1.4  753  306  -1.5         
03 19.04.18 170 (Ю) 20000 м    8/3 1000 м средняя 
[Sc|Ac trans]
+2.5 -8.1 45 +2  1017.7  -0.5  752  301  -1.6         
06 19.04.18 230 (ЮЗ) 20000 м    8/3 600 м верхняя 
[Cu hum|Ci fib]
+6.2 -8.6 34 +6  1016.9  -0.6  752  297           
09 19.04.18 240 (ЮЗ) 20000 м    8/8 570 м кучево-дожд. 
[Cb calv]
+6.6 -8.1 34 +6  1016.3  -0.5  752  297           
12 19.04.18 310 (СЗ) 20000 м    6/6 960 м кучево-дожд. 
[Cb calv]
+5.9 -5.2 45 +5  1017.5  1.1  752  297    +7.8       
15 19.04.18 290 (З) 20000 м    ясно 
+2 -5.5 58 +1  1019.4  1.7  754  302           
18 19.04.18 250 (З) 20000 м    ясно 
-4.2 -7.8 76 -5  1020.8  755  310           
21 19.04.18 200 (Ю) 20000 м    ясно 
-3.3 -8.1 69 -4  1020.9  0.2  755  309           
00 20.04.18 200 (Ю) 20000 м    9/0 верхняя 
[Cs]
-3.4 -7.1 76 -5  1020.8  -0.2  755  309  -4.3         
12 20.04.18 200 (Ю) 7-12{15}  20000 м    10/10 480 м кучево-дожд. 
[Cb cap]
+12 -3.7 33 +11  1014.4  -1.7  750  290    +12.5       
18 20.04.18 220 (ЮЗ) 20000 м    ясно 
+8.7 +4 72 +7  1013.1  -0.6  749  292           
21 20.04.18 200 (Ю) 20000 м    10/10 500 м кучево-дожд. 
[Cb cap]
+7.4 +1 64 +6  1012.2  -0.9  749  294           
00 21.04.18 200 (Ю) 20000 м    10/10 630 м кучево-дожд. 
[Cb cap]
+7.6 +2.5 70 +7  1012  -0.2  749  293  +7.4         
03 21.04.18 200 (Ю) 20000 м    4/0 средняя 
[Ac trans]
+10.7 +2.9 58 +10  1012.2  0.3  749  290  +7.2         
12 21.04.18 180 (Ю) 3{11}  20000 м  {ливн. осадки}  10/10 500 м кучево-дожд. 
[Cb cap]
+14.5 +4.5 51 +15  1010.1  -0.4  747  285    +18  0.0     
15 21.04.18 тихо ()   20000 м    10/5 300 м кучево-дожд., средняя, верхняя 
[Cb cap|Ac As|Ci fib]
+10.4 +2.5 58 +10  1009.3  -0.9  747  289           
18 21.04.18 190 (Ю) 20000 м    3/3 600 м 
[Sc]
+12 -3.3 34 +11  1007.3  -2  745  288           
21 21.04.18 180 (Ю) 5{10}  20000 м    9/0 верхняя 
[Ci sp]
+8.6 -3.2 43 +7  1005.2  -2.2  743  291           
00 22.04.18 220 (ЮЗ) 9-12{14}  20000 м    10/0 средняя 
[Ac As]
+12.5 -1.3 38 +11  1004.2  -0.8  743  286  +8.4         
Время (UTC), дата Ветер
(°,м/с) 
Видим.   Явления Облачность Т
(°С)
Тd
(°С)
f(%) Тe
(°С)
Pmin
(гПа)
dP
(гПа)
Po
(мм)
O2
(г/м3)
Тmin Tmax R s Состояние
почвы

Для получения пояснительной информации подведите курсор к названию столбца.

ПОГОДА в Карасуке - архив

Всё, что Вы хотите узнать о погоде в Карасуке - удобно и подробно!

Выберите нужную дату (начиная с 1 января 2015* года) и нажмите кнопку "Найти".
Будут отображены архивные сводки погоды по пункту Карасук, начиная с указанной даты.


Отображать данные в формате CSV (для использования в таблицах Excel)


Внимание! Наш архив погоды предназначен исключительно для личного некоммерческого использования в познавательных целях. Если Вам необходимы официальные справки о состоянии погоды (для производственных, юридических, коммерческих и т.п. целей), обращайтесь в органы Росгидромета.

*Примечание: данная дата относится к архиву по метеостанциям СССР (Россия, СНГ, Балтия).
Архив по метеостанциям Зарубежной Европы и Азии (кроме Китая) хранится 10 дней, по другим регионам земного шара (Китай, Африка, Америка, Австралия, Океания) - 1 день.

Карасук - район местоположения метеостанции


Название, широта, долгота, высота метеостанции:
Карасук 53.7°ш. 78.1°д. 115 м над ур. моря [Российская Федерация]

Дополнительная информация

В oтличие oт бoльшинства пoгoдных сайтoв мы публикуем пoдрoбную метеoинфoрмацию в детальнoм прoфессиoнальнoм фoрмате.

Характеристики температуры и влажнoсти вoздуха измеряются на высoте 2 м в тени вдали oт зданий и деревьев.
Скoрoсть ветра измеряется на высoте 10 м (на урoвне рoста челoвека скoрoсть ветра ниже в 1.5-2 раза). Если метеoстанция нахoдится в гoрoде или в лесу, тo скoрoсть ветра занижена на 2-4 м/с пo сравнению с oткрытым местoм. Скoрoсть ветра над акватoриями крупных рек и oзёр, а также на вершинах хoлмoв на 2-5 м/с выше, чем в oбычных услoвиях.
Атмoсфернoе давление в разных тoчках местнoсти мoжет значительнo oтличаться oт давления на метеoстанции, в зависимoсти oт услoвий рельефа (при пoдъёме на 10 м давление пoнижается примернo на 1 мм рт.ст.).